N3HBJ Weather Reports


Display with metric or nautical units.
time (UTC)temp
F
wind
direction
speed
MPH
gust
MPH
rain 1hr
in
rain 24hr
in
rain mn
in
humidity
%
barometer
mb
20260906165013 69 321 1.0 7.0 0.00 0.00 0.00 62 1018.8
20260906164514 70 275 1.0 7.0 0.00 0.00 0.00 64 1018.8
20260906164236 69 281 0.0 4.0 0.00 0.00 0.00 63 1018.8
20260906163738 70 277 0.0 5.0 0.00 0.00 0.00 65 1018.9
20260906163010 70 179 1.0 6.0 0.00 0.00 0.00 64 1018.9
20260906162509 70 331 1.0 7.0 0.00 0.00 0.00 64 1018.9
20260906162010 71 307 1.0 7.0 0.00 0.00 0.00 62 1018.9
20260906161510 71 329 1.0 4.0 0.00 0.00 0.00 66 1019.0
20260906161009 70 296 0.0 3.0 0.00 0.00 0.00 64 1019.0
20260906160522 70 251 1.0 4.0 0.00 0.00 0.00 67 1019.0
20260906160009 69 307 1.0 5.0 0.00 0.00 0.00 66 1019.0
20260906155509 68 318 0.0 5.0 0.00 0.00 0.00 68 1019.0
20260906155010 68 280 0.0 3.0 0.00 0.00 0.00 69 1019.1
20260906154508 68 277 0.0 8.0 0.00 0.00 0.00 68 1019.1
20260906154007 68 283 1.0 8.0 0.00 0.00 0.00 69 1019.0
20260906153727 68 223 0.0 5.0 0.00 0.00 0.00 70 1019.1
20260906153002 68 184 0.0 5.0 0.00 0.00 0.00 71 1019.0
20260906152457 68 282 0.0 5.0 0.00 0.00 0.00 72 1019.1
20260906151950 67 296 0.0 5.0 0.00 0.00 0.00 72 1019.0
20260906151443 67 257 0.0 4.0 0.00 0.00 0.00 74 1019.0
20260906150937 67 286 0.0 4.0 0.00 0.00 0.00 74 1018.9
20260906150647 67 252 0.0 2.0 0.00 0.00 0.00 74 1019.0
20260906145929 67 285 0.0 6.0 0.00 0.00 0.00 76 1018.9
20260906145430 66 288 0.0 6.0 0.00 0.00 0.00 78 1019.0
20260906144927 65 308 0.0 6.0 0.00 0.00 0.00 79 1018.9
20260906144425 64 312 0.0 6.0 0.00 0.00 0.00 80 1018.9
20260906143923 64 298 0.0 4.0 0.00 0.00 0.00 81 1018.9
20260906143646 64 235 0.0 4.0 0.00 0.00 0.00 82 1018.8
20260906142923 63 296 0.0 4.0 0.00 0.00 0.00 85 1018.8
20260906142422 62 315 0.0 4.0 0.00 0.00 0.00 87 1018.8
20260906142144 61 304 0.0 3.0 0.00 0.00 0.00 89 1018.8
20260906141419 61 317 0.0 2.0 0.00 0.00 0.00 91 1018.8
20260906140920 60 317 0.0 3.0 0.00 0.00 0.00 92 1018.8
20260906140419 59 312 0.0 3.0 0.00 0.00 0.00 93 1018.7
20260906135919 59 281 0.0 0.0 0.00 0.00 0.00 93 1018.7
20260906135638 58 281 0.0 0.0 0.00 0.00 0.00 93 1018.7
20260906134920 57 281 0.0 0.0 0.00 0.00 0.00 92 1018.6
20260906134419 57 281 0.0 0.0 0.00 0.00 0.00 92 1018.6
20260906134139 57 281 0.0 0.0 0.00 0.00 0.00 92 1018.7
20260906133420 56 281 0.0 0.0 0.00 0.00 0.00 92 1018.7
20260906132919 56 281 0.0 0.0 0.00 0.00 0.00 92 1018.6
20260906132419 56 281 0.0 0.0 0.00 0.00 0.00 92 1018.7
20260906132140 56 281 0.0 0.0 0.00 0.00 0.00 92 1018.6
20260906131432 56 281 0.0 0.0 0.00 0.00 0.00 92 1018.6
20260906130919 56 281 0.0 0.0 0.00 0.00 0.00 92 1018.6
20260906130419 56 281 0.0 0.0 0.00 0.00 0.00 92 1018.6
20260906125919 56 281 0.0 0.0 0.00 0.00 0.00 92 1018.6
20260906125416 55 281 0.0 0.0 0.00 0.00 0.00 92 1018.5
20260906124915 55 281 0.0 0.0 0.00 0.00 0.00 92 1018.5
20260906124415 55 281 0.0 0.0 0.00 0.00 0.00 92 1018.4
20260906123917 55 281 0.0 0.0 0.00 0.00 0.00 92 1018.4
20260906123640 55 281 0.0 0.0 0.00 0.00 0.00 92 1018.4
20260906122915 55 281 0.0 0.0 0.00 0.00 0.00 92 1018.3
20260906122415 55 281 0.0 0.0 0.00 0.00 0.00 92 1018.3
20260906121915 54 281 0.0 0.0 0.00 0.00 0.00 92 1018.2
20260906121415 54 281 0.0 0.0 0.00 0.00 0.00 92 1018.1
20260906120915 54 281 0.0 0.0 0.00 0.00 0.00 92 1017.9
20260906120415 54 281 0.0 0.0 0.00 0.00 0.00 92 1018.1
20260906120404 54 281 0.0 0.0 0.00 0.00 0.00 92 1017.9
20260906115636 54 281 0.0 0.0 0.00 0.00 0.00 92 1017.8
20260906114913 54 281 0.0 0.0 0.00 0.00 0.00 92 1017.8
20260906114413 54 281 0.0 0.0 0.00 0.00 0.00 92 1017.8
20260906113911 54 281 0.0 0.0 0.00 0.00 0.00 92 1017.8
20260906113409 54 281 0.0 0.0 0.00 0.00 0.00 91 1017.7
20260906113348 54 281 0.0 0.0 0.00 0.00 0.00 92 1017.6
20260906112626 54 281 0.0 0.0 0.00 0.00 0.00 91 1017.6
20260906111905 54 281 0.0 0.0 0.00 0.00 0.00 92 1017.6
20260906111405 54 281 0.0 0.0 0.00 0.00 0.00 92 1017.6
20260906110905 54 281 0.0 0.0 0.00 0.00 0.00 91 1017.6
20260906110405 54 281 0.0 0.0 0.00 0.00 0.00 91 1017.6
20260906105904 54 281 0.0 0.0 0.00 0.00 0.00 91 1017.5
20260906105403 54 281 0.0 0.0 0.00 0.00 0.00 92 1017.5
20260906104903 54 281 0.0 0.0 0.00 0.00 0.00 92 1017.4
20260906104402 54 281 0.0 0.0 0.00 0.00 0.00 92 1017.4
20260906103855 54 281 0.0 0.0 0.00 0.00 0.00 92 1017.3
20260906103348 54 281 0.0 0.0 0.00 0.00 0.00 92 1017.3
20260906102845 54 281 0.0 0.0 0.00 0.00 0.00 92 1017.3
20260906102339 54 281 0.0 0.0 0.00 0.00 0.00 92 1017.4
20260906101831 54 281 0.0 0.0 0.00 0.00 0.00 92 1017.4
20260906101807 54 281 0.0 0.0 0.00 0.00 0.00 92 1017.2
20260906100819 54 281 0.0 0.0 0.00 0.00 0.00 92 1017.1
20260906100313 54 281 0.0 0.0 0.00 0.00 0.00 92 1017.1
20260906095807 53 281 0.0 0.0 0.00 0.00 0.00 92 1017.1
20260906095300 53 281 0.0 0.0 0.00 0.00 0.00 92 1017.1
20260906094754 53 281 0.0 0.0 0.00 0.00 0.00 92 1017.1
20260906094249 53 281 0.0 0.0 0.00 0.00 0.00 92 1017.1
20260906093742 53 281 0.0 0.0 0.00 0.00 0.00 92 1017.1
20260906093500 53 281 0.0 0.0 0.00 0.00 0.00 91 1017.0
20260906092734 53 281 0.0 0.0 0.00 0.00 0.00 91 1017.0
20260906092448 53 281 0.0 0.0 0.00 0.00 0.00 91 1016.9
20260906091719 53 281 0.0 0.0 0.00 0.00 0.00 91 1016.8
20260906091212 53 281 0.0 0.0 0.00 0.00 0.00 91 1016.9
20260906090706 53 281 0.0 0.0 0.00 0.00 0.00 91 1016.8
20260906090431 53 281 0.0 0.0 0.00 0.00 0.00 91 1016.8
20260906085655 53 281 0.0 0.0 0.00 0.00 0.00 91 1016.8
20260906085155 53 281 0.0 0.0 0.00 0.00 0.00 91 1016.8
20260906084652 53 281 0.0 0.0 0.00 0.00 0.00 91 1016.7
20260906084205 53 281 0.0 0.0 0.00 0.00 0.00 91 1016.6
20260906083652 53 281 0.0 0.0 0.00 0.00 0.00 91 1016.5
20260906083151 53 281 0.0 0.0 0.00 0.00 0.00 91 1016.5
20260906082648 53 281 0.0 0.0 0.00 0.00 0.00 91 1016.5
20260906082147 53 281 0.0 0.0 0.00 0.00 0.00 91 1016.4
20260906081912 53 281 0.0 0.0 0.00 0.00 0.00 91 1016.3
20260906081142 53 281 0.0 0.0 0.00 0.00 0.00 91 1016.3
20260906080640 53 281 0.0 0.0 0.00 0.00 0.00 91 1016.2
20260906080138 52 281 0.0 0.0 0.00 0.00 0.00 91 1016.2
20260906075906 52 281 0.0 0.0 0.00 0.00 0.00 91 1016.2
20260906075138 52 281 0.0 0.0 0.00 0.00 0.00 91 1016.2
20260906074859 52 281 0.0 0.0 0.00 0.00 0.00 90 1016.1
20260906074136 52 281 0.0 0.0 0.00 0.00 0.00 90 1016.1
20260906073636 52 281 0.0 0.0 0.00 0.00 0.00 90 1016.2
20260906073135 52 281 0.0 0.0 0.00 0.00 0.00 90 1016.2
20260906072632 52 281 0.0 0.0 0.00 0.00 0.00 90 1016.2
20260906072355 52 281 0.0 0.0 0.00 0.00 0.00 90 1016.0
20260906071628 52 281 0.0 0.0 0.00 0.00 0.00 90 1016.0
20260906071347 53 281 0.0 0.0 0.00 0.00 0.00 90 1016.0
20260906070626 53 281 0.0 0.0 0.00 0.00 0.00 90 1016.0
20260906070127 53 281 0.0 0.0 0.00 0.00 0.00 90 1016.1
20260906065627 53 281 0.0 0.0 0.00 0.00 0.00 90 1016.2
20260906065122 53 281 0.0 0.0 0.00 0.00 0.00 90 1016.1
20260906064622 53 281 0.0 0.0 0.00 0.00 0.00 90 1016.1
20260906064122 53 281 0.0 0.0 0.00 0.00 0.00 90 1016.1
20260906063622 53 281 0.0 0.0 0.00 0.00 0.00 90 1016.0
20260906063125 53 281 0.0 0.0 0.00 0.00 0.00 90 1016.0
20260906062620 53 281 0.0 0.0 0.00 0.00 0.00 90 1016.0
20260906062348 53 281 0.0 0.0 0.00 0.00 0.00 90 1016.0
20260906061619 53 281 0.0 0.0 0.00 0.00 0.00 90 1016.1
20260906061118 53 281 0.0 0.0 0.00 0.00 0.00 90 1016.1
20260906060619 54 281 0.0 0.0 0.00 0.00 0.00 90 1016.0
20260906060124 54 281 0.0 0.0 0.00 0.00 0.00 90 1016.0
20260906055622 54 281 0.0 0.0 0.00 0.00 0.00 89 1016.0
20260906055618 54 281 0.0 0.0 0.00 0.00 0.00 90 1016.0
20260906054845 54 281 0.0 0.0 0.00 0.00 0.00 90 1016.1
20260906054119 54 281 0.0 0.0 0.00 0.00 0.00 90 1016.0
20260906053618 54 281 0.0 0.0 0.00 0.00 0.00 90 1016.1
20260906053118 55 281 0.0 0.0 0.00 0.00 0.00 90 1016.1
20260906052630 55 281 0.0 0.0 0.00 0.00 0.00 90 1016.1
20260906052118 55 281 0.0 0.0 0.00 0.00 0.00 90 1016.2
20260906051619 55 281 0.0 0.0 0.00 0.00 0.00 90 1016.1
20260906051118 55 281 0.0 0.0 0.00 0.00 0.00 89 1016.2
20260906050618 55 281 0.0 0.0 0.00 0.00 0.00 89 1016.2
20260906050130 55 281 0.0 0.0 0.00 0.00 0.00 89 1016.2
20260906045618 55 281 0.0 0.0 0.00 0.00 0.00 89 1016.2
20260906045121 55 281 0.0 0.0 0.00 0.00 0.00 89 1016.3
20260906044619 55 281 0.0 0.0 0.00 0.00 0.00 89 1016.2
20260906044119 55 281 0.0 0.0 0.00 0.00 0.00 89 1016.2
20260906043618 55 281 0.0 0.0 0.00 0.00 0.00 89 1016.0
20260906043117 56 281 0.0 0.0 0.00 0.00 0.00 89 1016.1
20260906042837 56 281 0.0 0.0 0.00 0.00 0.00 89 1016.1
20260906042114 56 281 0.0 0.0 0.00 0.00 0.00 89 1016.1
20260906041607 56 281 0.0 0.0 0.00 0.00 0.00 89 1016.0
20260906041102 56 281 0.0 0.0 0.00 0.00 0.00 89 1016.0
20260906041047 56 281 0.0 0.0 0.00 0.00 0.00 89 1015.9
20260906035545 56 281 0.0 0.0 0.00 0.00 0.00 89 1015.9
20260906035039 56 281 0.0 0.0 0.00 0.00 0.00 89 1016.1
20260906034533 57 281 0.0 0.0 0.00 0.00 0.00 89 1016.1
20260906034028 57 281 0.0 0.0 0.00 0.00 0.00 89 1016.1
20260906033521 57 281 0.0 0.0 0.00 0.00 0.00 88 1015.9
20260906033015 57 281 0.0 0.0 0.00 0.00 0.00 88 1016.0
20260906032510 57 281 0.0 0.0 0.00 0.00 0.00 88 1015.9
20260906032005 57 281 0.0 0.0 0.00 0.00 0.00 88 1015.9
20260906031457 57 281 0.0 0.0 0.00 0.00 0.00 88 1015.9
20260906030951 57 281 0.0 0.0 0.00 0.00 0.00 88 1015.8
20260906030445 57 281 0.0 0.0 0.00 0.00 0.00 88 1015.8
20260906025939 58 281 0.0 0.0 0.00 0.00 0.00 88 1015.8
20260906025434 58 281 0.0 0.0 0.00 0.00 0.00 87 1015.8
20260906024928 58 281 0.0 0.0 0.00 0.00 0.00 87 1015.8
20260906024421 58 281 0.0 0.0 0.00 0.00 0.00 87 1015.7
20260906023915 58 281 0.0 0.0 0.00 0.00 0.00 87 1015.7
20260906023409 58 281 0.0 0.0 0.00 0.00 0.00 87 1015.5
20260906022903 58 281 0.0 0.0 0.00 0.00 0.00 87 1015.5
20260906022357 58 281 0.0 0.0 0.00 0.00 0.00 87 1015.5
20260906021851 59 281 0.0 0.0 0.00 0.00 0.00 87 1015.5
20260906021345 59 281 0.0 0.0 0.00 0.00 0.00 86 1015.4
20260906020839 59 281 0.0 0.0 0.00 0.00 0.00 87 1015.4
20260906020333 59 281 0.0 0.0 0.00 0.00 0.00 86 1015.4
20260906015827 59 281 0.0 0.0 0.00 0.00 0.00 87 1015.4
20260906015321 60 281 0.0 0.0 0.00 0.00 0.00 86 1015.3
20260906014815 60 281 0.0 0.0 0.00 0.00 0.00 86 1015.2
20260906014309 60 281 0.0 0.0 0.00 0.00 0.00 85 1015.2
20260906013807 60 281 0.0 0.0 0.00 0.00 0.00 85 1015.1
20260906013308 60 281 0.0 0.0 0.00 0.00 0.00 85 1015.0
20260906012807 60 281 0.0 0.0 0.00 0.00 0.00 84 1015.0
20260906012306 61 281 0.0 0.0 0.00 0.00 0.00 84 1015.0
20260906011808 61 281 0.0 0.0 0.00 0.00 0.00 83 1014.9
20260906011525 61 281 0.0 0.0 0.00 0.00 0.00 83 1015.0
20260906011020 62 281 0.0 0.0 0.00 0.00 0.00 82 1014.9
20260906010302 62 281 0.0 0.0 0.00 0.00 0.00 82 1014.9
20260906005801 62 281 0.0 0.0 0.00 0.00 0.00 81 1014.8
20260906005259 63 281 0.0 0.0 0.00 0.00 0.00 81 1014.7
20260906004801 63 281 0.0 0.0 0.00 0.00 0.00 80 1014.6
20260906004259 64 281 0.0 0.0 0.00 0.00 0.00 79 1014.6
20260906003757 64 281 0.0 0.0 0.00 0.00 0.00 77 1014.5
20260906003255 65 281 0.0 0.0 0.00 0.00 0.00 76 1014.5
20260906002753 65 281 0.0 0.0 0.00 0.00 0.00 75 1014.5
20260906002253 65 281 0.0 0.0 0.00 0.00 0.00 75 1014.4
20260906001753 66 281 0.0 0.0 0.00 0.00 0.00 74 1014.3
20260906001253 67 281 0.0 0.0 0.00 0.00 0.00 72 1014.3
20260906000806 67 281 0.0 0.0 0.00 0.00 0.00 71 1014.3
20260906000256 68 281 0.0 0.0 0.00 0.00 0.00 67 1014.3
20260905235753 68 281 0.0 0.0 0.00 0.00 0.00 66 1014.2
20260905235253 69 281 0.0 0.0 0.00 0.00 0.00 65 1014.1
20260905234754 69 281 0.0 0.0 0.00 0.00 0.00 64 1014.1
20260905234253 70 281 0.0 0.0 0.00 0.00 0.00 63 1014.2
20260905233753 70 281 0.0 0.0 0.00 0.00 0.00 62 1014.1
20260905233254 71 281 0.0 1.0 0.00 0.00 0.00 62 1014.1
20260905232753 71 281 0.0 1.0 0.00 0.00 0.00 61 1014.1
20260905232254 72 281 0.0 0.0 0.00 0.00 0.00 61 1014.1
20260905231753 72 281 0.0 0.0 0.00 0.00 0.00 61 1014.1
20260905231301 73 281 0.0 0.0 0.00 0.00 0.00 57 1014.1
20260905231254 73 281 0.0 0.0 0.00 0.00 0.00 59 1014.0
20260905230248 73 281 0.0 3.0 0.00 0.00 0.00 56 1014.0
20260905225745 74 281 0.0 3.0 0.00 0.00 0.00 55 1013.9
20260905225244 74 327 0.0 1.0 0.00 0.00 0.00 56 1013.9
20260905224738 75 327 0.0 2.0 0.00 0.00 0.00 54 1013.9
20260905224456 75 330 0.0 2.0 0.00 0.00 0.00 53 1013.9
20260905223726 76 297 0.0 3.0 0.00 0.00 0.00 53 1013.8
20260905223220 76 295 0.0 3.0 0.00 0.00 0.00 54 1013.7
20260905222714 76 277 0.0 4.0 0.00 0.00 0.00 53 1013.7
20260905222207 76 292 0.0 4.0 0.00 0.00 0.00 52 1013.6
20260905221701 77 310 0.0 2.0 0.00 0.00 0.00 51 1013.6
20260905221154 77 310 0.0 2.0 0.00 0.00 0.00 52 1013.5
20260905220648 77 302 0.0 1.0 0.00 0.00 0.00 54 1013.5
20260905220409 77 302 0.0 3.0 0.00 0.00 0.00 52 1013.4
20260905215901 77 296 0.0 3.0 0.00 0.00 0.00 51 1013.4
20260905215130 77 181 0.0 2.0 0.00 0.00 0.00 50 1013.4
20260905214854 78 298 0.0 4.0 0.00 0.00 0.00 49 1013.4
20260905214118 78 246 0.0 7.0 0.00 0.00 0.00 48 1013.3
20260905213612 78 264 0.0 7.0 0.00 0.00 0.00 51 1013.3
20260905213106 78 331 0.0 3.0 0.00 0.00 0.00 50 1013.3
20260905212600 78 335 0.0 4.0 0.00 0.00 0.00 51 1013.1
20260905212054 78 290 0.0 4.0 0.00 0.00 0.00 51 1013.1
20260905211811 78 298 0.0 4.0 0.00 0.00 0.00 50 1013.3
20260905211530 78 284 0.0 4.0 0.00 0.00 0.00 48 1013.3
20260905210536 78 192 0.0 6.0 0.00 0.00 0.00 49 1013.4
20260905210032 78 227 0.0 6.0 0.00 0.00 0.00 49 1013.4
20260905205524 78 198 0.0 4.0 0.00 0.00 0.00 48 1013.1
20260905205020 78 282 0.0 3.0 0.00 0.00 0.00 49 1013.4
20260905204513 78 211 0.0 2.0 0.00 0.00 0.00 49 1013.3
20260905204229 78 215 0.0 2.0 0.00 0.00 0.00 48 1013.4
20260905203501 78 176 0.0 2.0 0.00 0.00 0.00 50 1013.4
20260905202954 78 261 0.0 3.0 0.00 0.00 0.00 50 1013.4
20260905202448 78 267 0.0 3.0 0.00 0.00 0.00 51 1013.4
20260905201942 77 279 0.0 1.0 0.00 0.00 0.00 53 1013.4
20260905201436 77 279 0.0 3.0 0.00 0.00 0.00 50 1013.4
20260905200930 78 278 0.0 6.0 0.00 0.00 0.00 49 1013.4
20260905200424 78 274 1.0 6.0 0.00 0.00 0.00 50 1013.4
20260905195918 78 329 0.0 4.0 0.00 0.00 0.00 52 1013.3
20260905195908 78 281 0.0 5.0 0.00 0.00 0.00 50 1013.3
20260905194907 78 205 0.0 2.0 0.00 0.00 0.00 51 1013.3
20260905194401 78 243 0.0 4.0 0.00 0.00 0.00 50 1013.4
20260905193854 77 249 0.0 4.0 0.00 0.00 0.00 55 1013.4
20260905193349 76 292 0.0 3.0 0.00 0.00 0.00 53 1013.4
20260905192842 76 292 0.0 3.0 0.00 0.00 0.00 53 1013.5
20260905192337 77 291 0.0 4.0 0.00 0.00 0.00 52 1013.6
20260905192309 77 269 0.0 7.0 0.00 0.00 0.00 52 1013.6
20260905191547 77 192 0.0 7.0 0.00 0.00 0.00 54 1013.6
20260905190819 77 253 0.0 3.0 0.00 0.00 0.00 54 1013.7
20260905190315 77 296 0.0 3.0 0.00 0.00 0.00 52 1013.7
20260905185806 77 291 0.0 6.0 0.00 0.00 0.00 54 1013.8
20260905185300 77 161 0.0 7.0 0.00 0.00 0.00 52 1013.7
20260905185016 77 288 0.0 7.0 0.00 0.00 0.00 53 1013.7
20260905184248 76 281 0.0 2.0 0.00 0.00 0.00 53 1013.8
20260905183742 76 176 0.0 2.0 0.00 0.00 0.00 53 1013.8
20260905183237 77 279 0.0 2.0 0.00 0.00 0.00 52 1013.8
20260905183215 77 311 0.0 1.0 0.00 0.00 0.00 53 1013.8
20260905182224 77 304 0.0 4.0 0.00 0.00 0.00 56 1013.9
20260905181718 76 224 0.0 4.0 0.00 0.00 0.00 58 1013.9
20260905181225 76 289 0.0 3.0 0.00 0.00 0.00 57 1014.0
20260905180938 75 177 0.0 2.0 0.00 0.00 0.00 55 1014.1
20260905180228 74 281 0.0 6.0 0.00 0.00 0.00 59 1014.1
20260905175711 74 287 0.0 6.0 0.00 0.00 0.00 59 1014.2
20260905175210 74 244 0.0 2.0 0.00 0.00 0.00 60 1014.2
20260905174708 75 291 0.0 4.0 0.00 0.00 0.00 59 1014.2
20260905174206 75 291 0.0 4.0 0.00 0.00 0.00 57 1014.2
20260905173929 76 234 1.0 7.0 0.00 0.00 0.00 59 1014.2
20260905173205 75 213 1.0 7.0 0.00 0.00 0.00 60 1014.2
20260905172718 75 215 0.0 3.0 0.00 0.00 0.00 61 1014.4
20260905172203 75 192 0.0 3.0 0.00 0.00 0.00 60 1014.4
20260905171701 74 158 0.0 3.0 0.00 0.00 0.00 64 1014.5
20260905171214 74 309 0.0 5.0 0.00 0.00 0.00 65 1014.5
20260905170700 74 202 1.0 5.0 0.00 0.00 0.00 60 1014.6
20260905170200 74 294 0.0 4.0 0.00 0.00 0.00 60 1014.7
20260905165701 74 221 0.0 2.0 0.00 0.00 0.00 61 1014.6